Regional Weather Roundup
Issued by NWS

Home | Current Version | Previous Version | Text Only | Print | Product List | Glossary Off
Versions: 1 2 3 4 5 6 7 8 9 10 11 12 13 14 15 16 17 18 19 20 21 22 23 24 25 26 27 28 29 30 31 32 33 34 35 36 37 38 39 40 41 42 43 44 45 46 47 48 49 50

000
ASUS43 KFSD 300910
RWRSD

WEATHER ROUNDUP FOR SOUTH DAKOTA
NATIONAL WEATHER SERVICE SIOUX FALLS SD
400 AM CDT MON MAR 30 2015

NOTE: "FAIR" INDICATES FEW OR NO CLOUDS BELOW 12,000 FEET WITH NO
SIGNIFICANT WEATHER AND/OR OBSTRUCTIONS TO VISIBILITY.


SDZ001>005-009-010-012>017-301000-
NORTHWEST AND NORTH CENTRAL SOUTH DAKOTA

CITY           SKY/WX    TMP DP  RH WIND       PRES   REMARKS
BUFFALO          N/A     40  27  59 W12       29.89F
FAITH            N/A     44  26  49 SW13      29.94F
MOBRIDGE       PTCLDY    39  30  70 SE6       29.90F
$$

SDZ012>016-024>037-041>051-057-063-072>074-301000-
SOUTHWEST AND SOUTH CENTRAL SOUTH DAKOTA

CITY           SKY/WX    TMP DP  RH WIND       PRES   REMARKS
RAPID CTY ARPT PTCLDY    40  25  55 NW6       29.99F
PIERRE         CLEAR     41  28  60 W12       29.96F
CUSTER         CLEAR     43  19  38 W8        30.05F
ELLSWORTH AFB  PTCLDY    39  26  58 W7        29.98F
PHILIP         CLEAR     33  24  69 W3        29.97F
PINE RIDGE     CLEAR     33  24  69 NW3       30.01F
SPEARFISH      FAIR      41  19  42 CALM      30.01F
WINNER         FAIR      46  20  35 SW10      30.00F
$$

SDZ004>011-016>023-039-040-301000-
NORTHEAST SOUTH DAKOTA

CITY           SKY/WX    TMP DP  RH WIND       PRES   REMARKS
ABERDEEN       MOCLDY    30  24  78 S5        29.94F WCI  25
WATERTOWN      MOCLDY    33  26  75 S8        29.96F WCI  26
SISSETON         N/A     42  28  57 W7        29.92F
$$

SDZ017-020-022-023-036>040-048>070-301000-
SOUTHEAST SOUTH DAKOTA

CITY           SKY/WX    TMP DP  RH WIND       PRES   REMARKS
SIOUX FALLS    PTCLDY    34  22  61 CALM      30.01F
HURON          PTCLDY    36  24  62 S3        29.97F
CHAMBERLAIN    PTCLDY    40  25  54 SW7       29.99F
MITCHELL       MOCLDY    41  25  53 S7        30.00F
YANKTON        MOCLDY    43  25  49 SW7       30.04F
$$

ABBREVIATIONS USED IN REMARKS
   TC - TEMPERATURE IN CELSIUS
  WCI - WIND CHILL INDEX
   HX - HEAT INDEX
  VSB - VISIBILITY



USA.gov is the U.S. government's official web portal to all federal, state and local government web resources and services.